K0FJ-1 Weather Reports


Display with metric or nautical units.
time (UTC)temp
F
wind
direction
speed
MPH
gust
MPH
rain 1hr
in
rain 24hr
in
rain mn
in
humidity
%
barometer
mb
20260509103003 49 216 2.0 5.0 0.00 0.00 0.00 72 1011.4
20260509102503 49 218 3.0 5.0 0.00 0.00 0.00 72 1011.4
20260509102003 49 216 3.0 7.0 0.00 0.00 0.00 72 1011.5
20260509101503 49 216 3.0 7.0 0.00 0.00 0.00 72 1011.5
20260509101003 49 217 2.0 5.0 0.00 0.00 0.00 71 1011.7
20260509100503 49 213 2.0 5.0 0.00 0.00 0.00 71 1011.7
20260509100004 49 212 2.0 4.0 0.00 0.00 0.00 71 1011.8
20260509095504 49 213 2.0 4.0 0.00 0.00 0.00 71 1011.7
20260509095003 49 212 1.0 4.0 0.00 0.00 0.00 70 1011.8
20260509094503 49 211 1.0 3.0 0.00 0.00 0.00 70 1011.7
20260509094003 49 210 1.0 3.0 0.00 0.00 0.00 70 1011.7
20260509093503 49 209 1.0 3.0 0.00 0.00 0.00 70 1011.8
20260509093003 49 209 2.0 3.0 0.00 0.00 0.00 70 1011.8
20260509092505 49 208 2.0 4.0 0.00 0.00 0.00 69 1011.9
20260509092003 49 212 2.0 4.0 0.00 0.00 0.00 69 1012.0
20260509091503 50 215 2.0 3.0 0.00 0.00 0.00 68 1011.9
20260509091003 50 216 1.0 3.0 0.00 0.00 0.00 68 1011.9
20260509090503 50 215 1.0 3.0 0.00 0.00 0.00 68 1011.8
20260509090003 50 213 1.0 4.0 0.00 0.00 0.00 68 1011.8
20260509085505 50 215 1.0 4.0 0.00 0.00 0.00 68 1011.8
20260509085003 49 217 1.0 4.0 0.00 0.00 0.00 68 1011.8
20260509084503 49 219 1.0 3.0 0.00 0.00 0.00 69 1011.9
20260509084003 49 219 1.0 3.0 0.00 0.00 0.00 69 1011.9
20260509083503 49 219 1.0 3.0 0.00 0.00 0.00 69 1011.9
20260509083003 49 219 0.0 3.0 0.00 0.00 0.00 68 1011.8
20260509082505 49 219 1.0 3.0 0.00 0.00 0.00 68 1011.9
20260509082003 49 219 2.0 4.0 0.00 0.00 0.00 68 1011.9
20260509081503 49 219 2.0 4.0 0.00 0.00 0.00 68 1012.0
20260509081004 49 219 1.0 4.0 0.00 0.00 0.00 68 1012.0
20260509080503 49 219 0.0 2.0 0.00 0.00 0.00 69 1011.9
20260509080004 49 219 0.0 1.0 0.00 0.00 0.00 68 1011.9
20260509075503 49 219 0.0 3.0 0.00 0.00 0.00 68 1011.9
20260509075003 49 219 1.0 3.0 0.00 0.00 0.00 69 1012.0
20260509074505 49 219 1.0 3.0 0.00 0.00 0.00 69 1011.9
20260509074003 49 219 1.0 3.0 0.00 0.00 0.00 69 1012.0
20260509073503 49 219 1.0 2.0 0.00 0.00 0.00 69 1011.9
20260509073005 49 215 2.0 4.0 0.00 0.00 0.00 68 1012.0
20260509072503 50 209 2.0 4.0 0.00 0.00 0.00 68 1012.0
20260509072003 50 210 2.0 4.0 0.00 0.00 0.00 68 1012.1
20260509071503 50 212 2.0 4.0 0.00 0.00 0.00 68 1012.1
20260509071003 50 209 2.0 3.0 0.00 0.00 0.00 68 1012.2
20260509070503 50 209 2.0 3.0 0.00 0.00 0.00 67 1012.3
20260509070005 50 209 1.0 3.0 0.00 0.00 0.00 68 1012.3
20260509065503 50 209 1.0 2.0 0.00 0.00 0.00 68 1012.3
20260509065003 50 209 1.0 3.0 0.00 0.00 0.00 67 1012.4
20260509064503 50 209 2.0 3.0 0.00 0.00 0.00 67 1012.4
20260509064003 50 209 2.0 4.0 0.00 0.00 0.00 67 1012.5
20260509063503 51 207 2.0 5.0 0.00 0.00 0.00 67 1012.5
20260509063003 51 205 2.0 5.0 0.00 0.00 0.00 67 1012.5
20260509062503 51 207 1.0 3.0 0.00 0.00 0.00 67 1012.4
20260509062003 51 209 2.0 4.0 0.00 0.00 0.00 67 1012.6
20260509061505 51 211 2.0 4.0 0.00 0.00 0.00 66 1012.7
20260509061003 51 212 2.0 4.0 0.00 0.00 0.00 66 1012.7
20260509060503 51 212 2.0 3.0 0.00 0.00 0.00 66 1012.7
20260509060004 51 214 1.0 3.0 0.00 0.00 0.00 66 1012.7
20260509055503 51 214 2.0 3.0 0.00 0.00 0.00 66 1012.8
20260509055003 51 214 2.0 3.0 0.00 0.00 0.00 66 1012.8
20260509054503 52 214 2.0 4.0 0.00 0.00 0.00 66 1012.9
20260509054003 52 205 2.0 4.0 0.00 0.00 0.00 65 1013.0
20260509053503 52 203 2.0 3.0 0.00 0.00 0.00 65 1012.9
20260509053003 52 211 2.0 4.0 0.00 0.00 0.00 65 1013.0
20260509052503 52 210 3.0 4.0 0.00 0.00 0.00 65 1013.1
20260509052004 52 207 2.0 4.0 0.00 0.00 0.00 64 1013.1
20260509051503 53 207 2.0 3.0 0.00 0.00 0.00 63 1013.1
20260509051003 53 207 2.0 3.0 0.00 0.00 0.00 63 1013.1
20260509050503 53 207 1.0 3.0 0.00 0.00 0.00 63 1013.0
20260509050004 53 207 1.0 3.0 0.00 0.00 0.00 62 1013.0
20260509045503 53 208 2.0 3.0 0.00 0.00 0.00 62 1013.1
20260509045003 54 213 2.0 3.0 0.00 0.00 0.00 61 1013.2
20260509044503 54 210 2.0 5.0 0.00 0.00 0.00 60 1013.2
20260509044003 54 203 2.0 5.0 0.00 0.00 0.00 60 1013.2
20260509043503 55 201 2.0 4.0 0.00 0.00 0.00 59 1013.2
20260509043003 55 202 1.0 3.0 0.00 0.00 0.00 58 1013.2
20260509042503 55 202 2.0 3.0 0.00 0.00 0.00 57 1013.1
20260509042004 55 203 2.0 3.0 0.00 0.00 0.00 57 1013.2
20260509041503 56 208 2.0 4.0 0.00 0.00 0.00 56 1013.2
20260509041003 56 214 2.0 4.0 0.00 0.00 0.00 55 1013.3
20260509040503 56 214 1.0 3.0 0.00 0.00 0.00 56 1013.3
20260509040005 57 210 1.0 3.0 0.00 0.00 0.00 55 1013.2
20260509035503 57 210 1.0 3.0 0.00 0.00 0.00 55 1013.2
20260509035003 57 210 0.0 2.0 0.00 0.00 0.00 54 1013.2
20260509034503 57 210 0.0 2.0 0.00 0.00 0.00 53 1013.1
20260509034003 57 210 1.0 2.0 0.00 0.00 0.00 53 1013.0
20260509033503 58 212 2.0 4.0 0.00 0.00 0.00 53 1012.9
20260509033003 58 213 3.0 5.0 0.00 0.00 0.00 54 1012.9
20260509032503 59 213 2.0 5.0 0.00 0.00 0.00 53 1012.9
20260509032003 59 211 1.0 3.0 0.00 0.00 0.00 53 1012.8
20260509031505 60 208 0.0 2.0 0.00 0.00 0.00 52 1012.7
20260509031003 60 213 1.0 3.0 0.00 0.00 0.00 50 1012.7
20260509030505 61 238 2.0 3.0 0.00 0.00 0.00 51 1012.6
20260509030004 61 338 1.0 3.0 0.00 0.00 0.00 50 1012.6
20260509025503 62 350 0.0 2.0 0.00 0.00 0.00 48 1012.6
20260509025003 63 0 0.0 0.0 0.00 0.00 0.00 47 1012.4
20260509024503 63 350 0.0 1.0 0.00 0.00 0.00 46 1012.3
20260509024003 64 350 0.0 1.0 0.00 0.00 0.00 45 1012.3
20260509023503 64 0 0.0 0.0 0.00 0.00 0.00 44 1012.3
20260509023003 64 0 0.0 0.0 0.00 0.00 0.00 44 1012.3
20260509022503 65 0 0.0 0.0 0.00 0.00 0.00 43 1012.3
20260509022003 66 0 0.0 0.0 0.00 0.00 0.00 42 1012.2
20260509021503 66 0 0.0 0.0 0.00 0.00 0.00 41 1012.2
20260509021003 66 0 0.0 0.0 0.00 0.00 0.00 40 1012.2
20260509020504 67 0 0.0 0.0 0.00 0.00 0.00 39 1012.1
20260509020003 67 0 0.0 0.0 0.00 0.00 0.00 38 1012.1
20260509015503 68 0 0.0 0.0 0.00 0.00 0.00 38 1012.0
20260509015003 68 0 0.0 0.0 0.00 0.00 0.00 37 1012.0
20260509014503 69 0 0.0 0.0 0.00 0.00 0.00 35 1012.0
20260509014003 69 0 0.0 0.0 0.00 0.00 0.00 35 1011.8
20260509013503 69 0 0.0 0.0 0.00 0.00 0.00 36 1011.8
20260509013003 70 0 0.0 0.0 0.00 0.00 0.00 34 1011.7
20260509012503 70 360 0.0 1.0 0.00 0.00 0.00 34 1011.7
20260509012003 70 360 0.0 1.0 0.00 0.00 0.00 33 1011.6
20260509011503 71 360 0.0 2.0 0.00 0.00 0.00 33 1011.7
20260509011003 71 342 1.0 4.0 0.00 0.00 0.00 32 1011.6
20260509010503 71 338 2.0 8.0 0.00 0.00 0.00 31 1011.6
20260509010003 72 336 3.0 8.0 0.00 0.00 0.00 30 1011.5
20260509005503 72 332 4.0 8.0 0.00 0.00 0.00 29 1011.6
20260509005003 72 338 3.0 8.0 0.00 0.00 0.00 29 1011.5
20260509004503 72 351 2.0 6.0 0.00 0.00 0.00 29 1011.5
20260509004004 73 348 1.0 5.0 0.00 0.00 0.00 30 1011.6
20260509003503 74 335 2.0 10.0 0.00 0.00 0.00 28 1011.6
20260509003004 74 328 3.0 10.0 0.00 0.00 0.00 27 1011.6
20260509002503 74 331 3.0 12.0 0.00 0.00 0.00 27 1011.6
20260509002003 74 322 4.0 12.0 0.00 0.00 0.00 27 1011.6
20260509001503 75 329 4.0 10.0 0.00 0.00 0.00 27 1011.6
20260509001003 75 353 2.0 8.0 0.00 0.00 0.00 28 1011.7
20260509000503 75 344 2.0 5.0 0.00 0.00 0.00 29 1011.7
20260509000003 74 346 2.0 5.0 0.00 0.00 0.00 28 1011.7
20260508235503 74 356 3.0 6.0 0.00 0.00 0.00 29 1011.8
20260508235003 74 349 2.0 6.0 0.00 0.00 0.00 29 1011.8
20260508234505 74 324 3.0 6.0 0.00 0.00 0.00 29 1011.8
20260508234003 74 318 4.0 10.0 0.00 0.00 0.00 28 1011.9
20260508233503 74 331 4.0 10.0 0.00 0.00 0.00 28 1011.8
20260508233003 74 351 3.0 9.0 0.00 0.00 0.00 28 1011.8
20260508232503 74 343 4.0 9.0 0.00 0.00 0.00 29 1011.8
20260508232003 75 341 5.0 13.0 0.00 0.00 0.00 29 1011.9
20260508231504 74 349 4.0 13.0 0.00 0.00 0.00 30 1011.9
20260508231003 74 4 3.0 11.0 0.00 0.00 0.00 30 1012.0
20260508230505 74 353 4.0 11.0 0.00 0.00 0.00 29 1011.9
20260508230003 74 339 4.0 11.0 0.00 0.00 0.00 28 1011.9
20260508225503 74 342 5.0 12.0 0.00 0.00 0.00 27 1012.0
20260508225003 74 343 6.0 12.0 0.00 0.00 0.00 28 1011.9
20260508224503 74 335 5.0 12.0 0.00 0.00 0.00 28 1012.0
20260508224003 73 327 6.0 11.0 0.00 0.00 0.00 31 1012.0
20260508223503 73 328 6.0 11.0 0.00 0.00 0.00 30 1012.0
20260508223003 73 337 5.0 12.0 0.00 0.00 0.00 29 1012.0
20260508222503 74 349 5.0 12.0 0.00 0.00 0.00 29 1012.0
20260508222003 74 356 4.0 10.0 0.00 0.00 0.00 30 1011.9
20260508221503 73 1 4.0 9.0 0.00 0.00 0.00 30 1012.0
20260508221003 73 356 4.0 11.0 0.00 0.00 0.00 29 1012.0
20260508220503 73 349 4.0 12.0 0.00 0.00 0.00 30 1012.0
20260508220003 73 351 3.0 12.0 0.00 0.00 0.00 30 1012.0
20260508215503 74 358 4.0 10.0 0.00 0.00 0.00 28 1012.0
20260508215003 74 9 4.0 13.0 0.00 0.00 0.00 28 1012.1
20260508214503 74 15 4.0 13.0 0.00 0.00 0.00 30 1012.0
20260508214003 74 2 5.0 11.0 0.00 0.00 0.00 28 1012.1
20260508213505 75 349 4.0 11.0 0.00 0.00 0.00 29 1012.1
20260508213003 74 334 4.0 10.0 0.00 0.00 0.00 29 1012.1
20260508212503 74 341 5.0 14.0 0.00 0.00 0.00 30 1012.2
20260508212003 74 2 4.0 14.0 0.00 0.00 0.00 30 1012.3
20260508211503 74 359 5.0 12.0 0.00 0.00 0.00 29 1012.3
20260508211003 73 358 4.0 12.0 0.00 0.00 0.00 30 1012.3
20260508210504 73 7 3.0 10.0 0.00 0.00 0.00 29 1012.3
20260508210003 73 6 4.0 13.0 0.00 0.00 0.00 30 1012.5
20260508205503 74 349 5.0 14.0 0.00 0.00 0.00 29 1012.5
20260508205003 73 328 7.0 14.0 0.00 0.00 0.00 30 1012.6
20260508204503 72 322 6.0 13.0 0.00 0.00 0.00 30 1012.6
20260508204003 72 330 5.0 13.0 0.00 0.00 0.00 30 1012.7
20260508203503 72 341 3.0 11.0 0.00 0.00 0.00 32 1012.7
20260508203003 72 349 4.0 13.0 0.00 0.00 0.00 33 1012.9
20260508202505 72 347 5.0 13.0 0.00 0.00 0.00 33 1012.9
20260508202003 71 356 4.0 10.0 0.00 0.00 0.00 35 1012.8
20260508201503 70 9 3.0 9.0 0.00 0.00 0.00 34 1013.0
20260508201003 71 6 3.0 13.0 0.00 0.00 0.00 35 1013.1
20260508200503 70 347 5.0 14.0 0.00 0.00 0.00 37 1013.1
20260508200003 70 339 5.0 14.0 0.00 0.00 0.00 35 1013.2
20260508195503 70 340 4.0 9.0 0.00 0.00 0.00 36 1013.1
20260508195003 70 337 5.0 12.0 0.00 0.00 0.00 36 1013.1
20260508194503 70 330 5.0 12.0 0.00 0.00 0.00 35 1013.2
20260508194003 70 330 6.0 14.0 0.00 0.00 0.00 37 1013.1
20260508193505 70 343 5.0 14.0 0.00 0.00 0.00 35 1013.2
20260508193003 70 327 5.0 16.0 0.00 0.00 0.00 36 1013.3
20260508192503 70 318 8.0 16.0 0.00 0.00 0.00 35 1013.3
20260508192003 71 330 6.0 16.0 0.00 0.00 0.00 35 1013.2
20260508191503 71 350 5.0 13.0 0.00 0.00 0.00 34 1013.3
20260508191003 71 350 5.0 13.0 0.00 0.00 0.00 33 1013.2
20260508190503 71 346 6.0 12.0 0.00 0.00 0.00 33 1013.3
20260508190003 70 352 5.0 12.0 0.00 0.00 0.00 32 1013.4
20260508185503 70 351 5.0 13.0 0.00 0.00 0.00 33 1013.3
20260508185003 70 345 5.0 13.0 0.00 0.00 0.00 35 1013.5
20260508184504 71 348 4.0 10.0 0.00 0.00 0.00 32 1013.4
20260508184003 70 357 4.0 10.0 0.00 0.00 0.00 34 1013.4
20260508183503 70 345 5.0 13.0 0.00 0.00 0.00 36 1013.4
20260508183005 69 340 6.0 14.0 0.00 0.00 0.00 35 1013.4
20260508182503 69 346 5.0 14.0 0.00 0.00 0.00 33 1013.5
20260508182003 69 359 4.0 15.0 0.00 0.00 0.00 34 1013.6
20260508181503 69 5 3.0 15.0 0.00 0.00 0.00 33 1013.6
20260508181003 70 345 4.0 12.0 0.00 0.00 0.00 34 1013.5
20260508180503 69 352 5.0 12.0 0.00 0.00 0.00 36 1013.5
20260508180003 69 2 5.0 12.0 0.00 0.00 0.00 35 1013.7
20260508175503 69 344 6.0 18.0 0.00 0.00 0.00 33 1013.6
20260508175003 69 344 5.0 18.0 0.00 0.00 0.00 35 1013.6
20260508174503 68 17 3.0 10.0 0.00 0.00 0.00 36 1013.6
20260508174003 68 25 3.0 11.0 0.00 0.00 0.00 38 1013.7
20260508173503 67 15 3.0 11.0 0.00 0.00 0.00 40 1013.6
20260508173004 67 9 4.0 10.0 0.00 0.00 0.00 39 1013.7
20260508172503 68 350 5.0 14.0 0.00 0.00 0.00 38 1013.7
20260508172003 68 346 5.0 14.0 0.00 0.00 0.00 38 1013.7
20260508171503 68 349 5.0 11.0 0.00 0.00 0.00 39 1013.8
20260508171003 68 344 6.0 14.0 0.00 0.00 0.00 39 1013.9
20260508170503 67 343 6.0 14.0 0.00 0.00 0.00 40 1013.9
20260508170003 67 355 5.0 11.0 0.00 0.00 0.00 41 1013.9
20260508165503 66 348 7.0 17.0 0.00 0.00 0.00 38 1013.9
20260508165004 66 343 6.0 17.0 0.00 0.00 0.00 40 1013.9
20260508164503 66 349 6.0 17.0 0.00 0.00 0.00 41 1013.9
20260508164003 66 353 6.0 17.0 0.00 0.00 0.00 38 1014.0
20260508163503 66 359 5.0 15.0 0.00 0.00 0.00 43 1014.0
20260508163004 65 349 4.0 15.0 0.00 0.00 0.00 41 1014.0
20260508162503 65 343 5.0 12.0 0.00 0.00 0.00 44 1013.9
20260508162003 64 340 6.0 19.0 0.00 0.00 0.00 45 1014.0
20260508161503 64 336 7.0 19.0 0.00 0.00 0.00 45 1014.0
20260508161003 64 338 7.0 16.0 0.00 0.00 0.00 48 1014.0
20260508160503 63 330 9.0 18.0 0.00 0.00 0.00 48 1014.1
20260508160003 62 328 8.0 18.0 0.00 0.00 0.00 50 1014.1
20260508155503 62 337 7.0 17.0 0.00 0.00 0.00 51 1014.0
20260508155003 61 331 7.0 15.0 0.00 0.00 0.00 52 1014.1
20260508154503 62 327 9.0 18.0 0.00 0.00 0.00 52 1014.0
20260508154003 61 332 9.0 18.0 0.00 0.00 0.00 52 1013.9
20260508153503 61 337 8.0 16.0 0.00 0.00 0.00 54 1013.9
20260508153003 61 328 8.0 16.0 0.00 0.00 0.00 56 1013.9
20260508152503 60 331 8.0 15.0 0.00 0.00 0.00 58 1013.9
20260508152003 59 337 8.0 18.0 0.00 0.00 0.00 59 1013.9
20260508151503 59 332 7.0 18.0 0.00 0.00 0.00 60 1013.8
20260508151003 59 334 5.0 13.0 0.00 0.00 0.00 61 1013.7
20260508150503 59 333 6.0 15.0 0.00 0.00 0.00 61 1013.6
20260508150005 59 332 7.0 15.0 0.00 0.00 0.00 64 1013.7
20260508145503 58 331 6.0 17.0 0.00 0.00 0.00 66 1013.8
20260508145003 58 331 7.0 17.0 0.00 0.00 0.00 68 1013.8
20260508144503 57 331 8.0 16.0 0.00 0.00 0.00 68 1013.8
20260508144003 56 334 8.0 17.0 0.00 0.00 0.00 68 1013.6
20260508143503 56 340 7.0 17.0 0.00 0.00 0.00 68 1013.6
20260508143003 56 338 7.0 15.0 0.00 0.00 0.00 68 1013.5
20260508142503 56 333 7.0 15.0 0.00 0.00 0.00 68 1013.6
20260508142003 56 336 8.0 16.0 0.00 0.00 0.00 68 1013.6
20260508141503 56 340 8.0 17.0 0.00 0.00 0.00 68 1013.4
20260508141004 56 336 8.0 17.0 0.00 0.00 0.00 68 1013.5
20260508140503 56 334 8.0 19.0 0.00 0.00 0.00 69 1013.5
20260508140003 56 332 8.0 19.0 0.00 0.00 0.00 70 1013.5
20260508135503 56 327 8.0 15.0 0.00 0.00 0.00 71 1013.4
20260508135003 56 328 8.0 15.0 0.00 0.00 0.00 72 1013.4
20260508134503 55 325 8.0 15.0 0.00 0.00 0.00 73 1013.4
20260508134003 55 325 8.0 14.0 0.00 0.00 0.00 73 1013.4
20260508133503 55 332 9.0 17.0 0.00 0.00 0.00 74 1013.3
20260508133003 55 329 9.0 17.0 0.00 0.00 0.00 74 1013.1
20260508132503 55 324 8.0 14.0 0.00 0.00 0.00 75 1013.1
20260508132003 55 324 7.0 14.0 0.00 0.00 0.00 75 1013.0
20260508131503 55 324 8.0 14.0 0.00 0.00 0.00 75 1013.0
20260508131003 54 321 8.0 15.0 0.00 0.00 0.00 75 1012.8
20260508130503 55 320 7.0 15.0 0.00 0.00 0.00 75 1012.7
20260508130004 55 323 7.0 14.0 0.00 0.00 0.00 75 1012.7
20260508125503 54 318 7.0 12.0 0.00 0.00 0.00 75 1012.7
20260508125003 54 311 6.0 11.0 0.00 0.00 0.00 76 1012.6
20260508124503 54 310 6.0 11.0 0.00 0.00 0.00 76 1012.6
20260508124003 54 312 6.0 11.0 0.00 0.00 0.00 76 1012.6
20260508123503 54 317 6.0 10.0 0.00 0.00 0.00 75 1012.5
20260508123003 54 324 5.0 10.0 0.00 0.00 0.00 75 1012.3
20260508122503 54 327 5.0 10.0 0.00 0.00 0.00 75 1012.2
20260508122003 54 329 3.0 10.0 0.00 0.00 0.00 76 1012.0
20260508121503 53 326 3.0 8.0 0.00 0.00 0.00 77 1011.9
20260508121003 53 326 3.0 7.0 0.00 0.00 0.00 77 1011.8
20260508120503 53 327 4.0 8.0 0.00 0.00 0.00 78 1011.7
20260508120003 53 321 4.0 9.0 0.00 0.00 0.00 78 1011.7
20260508115505 53 315 4.0 9.0 0.00 0.00 0.00 78 1011.7
20260508115004 53 314 4.0 8.0 0.00 0.00 0.00 77 1011.5
20260508114503 53 317 4.0 10.0 0.00 0.00 0.00 77 1011.5
20260508114003 53 316 4.0 10.0 0.00 0.00 0.00 76 1011.5
20260508113503 54 312 4.0 9.0 0.00 0.00 0.00 75 1011.5
20260508113004 54 311 4.0 8.0 0.00 0.00 0.00 74 1011.5
20260508112503 55 314 4.0 10.0 0.00 0.00 0.00 73 1011.5
20260508112003 55 319 5.0 11.0 0.00 0.00 0.00 72 1011.5
20260508111503 56 322 6.0 12.0 0.00 0.00 0.00 72 1011.5
20260508111003 56 323 6.0 12.0 0.00 0.00 0.00 71 1011.5
20260508110503 56 321 5.0 9.0 0.00 0.00 0.00 71 1011.5
20260508110005 56 322 5.0 12.0 0.00 0.00 0.00 70 1011.6
20260508105503 57 328 5.0 12.0 0.00 0.00 0.00 69 1011.4
20260508105003 57 330 5.0 11.0 0.00 0.00 0.00 69 1011.4
20260508104503 57 333 6.0 12.0 0.00 0.00 0.00 69 1011.4
20260508104003 57 332 6.0 13.0 0.00 0.00 0.00 68 1011.4
20260508103503 57 332 7.0 13.0 0.00 0.00 0.00 68 1011.4